| time (UTC) | temp F | wind direction | speed MPH | gust MPH | rain 1hr in | rain 24hr in | rain mn in | humidity % | barometer mb |
| 20260505214538 | 63 | 0 | 0.0 | 3.0 | 0.00 | 1.05 | 0.00 | 73 | 1014.7 |
| 20260505213037 | 63 | 210 | 0.0 | 3.0 | 0.00 | 1.05 | 0.00 | 73 | 1014.7 |
| 20260505211534 | 63 | 210 | 0.0 | 4.0 | 0.00 | 1.05 | 0.00 | 74 | 1014.7 |
| 20260505210038 | 63 | 210 | 1.0 | 5.0 | 0.00 | 1.05 | 0.00 | 73 | 1014.6 |
| 20260505204538 | 64 | 221 | 1.0 | 5.0 | 0.00 | 1.09 | 0.00 | 73 | 1014.6 |
| 20260505203038 | 65 | 0 | 1.0 | 4.0 | 0.00 | 1.09 | 0.00 | 70 | 1014.7 |
| 20260505201540 | 66 | 219 | 2.0 | 5.0 | 0.00 | 1.09 | 0.00 | 74 | 1014.7 |
| 20260505200041 | 67 | 0 | 0.0 | 2.0 | 0.00 | 1.09 | 0.00 | 72 | 1014.8 |
| 20260505194541 | 66 | 0 | 0.0 | 3.0 | 0.00 | 1.11 | 0.00 | 75 | 1015.0 |
| 20260505193042 | 64 | 178 | 0.0 | 6.0 | 0.00 | 1.11 | 0.00 | 75 | 1015.0 |
| 20260505191543 | 63 | 0 | 1.0 | 4.0 | 0.00 | 1.11 | 0.00 | 78 | 1015.0 |
| 20260505190038 | 62 | 141 | 0.0 | 3.0 | 0.00 | 1.11 | 0.00 | 81 | 1015.1 |
| 20260505184538 | 61 | 0 | 0.0 | 4.0 | 0.00 | 1.11 | 0.00 | 78 | 1015.1 |
| 20260505183039 | 61 | 132 | 0.0 | 4.0 | 0.00 | 1.11 | 0.00 | 81 | 1015.0 |
| 20260505181541 | 60 | 130 | 0.0 | 3.0 | 0.00 | 1.11 | 0.00 | 81 | 1014.9 |
| 20260505180044 | 59 | 128 | 0.0 | 2.0 | 0.00 | 1.11 | 0.00 | 88 | 1014.8 |
| 20260505174538 | 58 | 127 | 0.0 | 3.0 | 0.00 | 1.11 | 0.00 | 92 | 1014.7 |
| 20260505173038 | 56 | 0 | 0.0 | 3.0 | 0.00 | 1.11 | 0.00 | 93 | 1014.7 |
| 20260505171537 | 55 | 0 | 0.0 | 3.0 | 0.00 | 1.11 | 0.00 | 94 | 1014.8 |
| 20260505170036 | 55 | 0 | 0.0 | 4.0 | 0.00 | 1.11 | 0.00 | 94 | 1014.8 |
| 20260505164534 | 55 | 0 | 0.0 | 4.0 | 0.00 | 1.11 | 0.00 | 94 | 1014.6 |
| 20260505163032 | 54 | 0 | 0.0 | 2.0 | 0.00 | 1.11 | 0.00 | 94 | 1014.6 |
| 20260505161543 | 54 | 0 | 0.0 | 2.0 | 0.00 | 1.11 | 0.00 | 94 | 1014.6 |
| 20260505153035 | 52 | 0 | 0.0 | 2.0 | 0.00 | 1.11 | 0.00 | 94 | 1014.5 |
| 20260505151539 | 52 | 0 | 0.0 | 2.0 | 0.00 | 1.11 | 0.00 | 94 | 1014.4 |
| 20260505124543 | 51 | 0 | 0.0 | 2.0 | 0.00 | 1.11 | 0.00 | 93 | 1013.5 |
| 20260505123037 | 51 | 0 | 0.0 | 1.0 | 0.00 | 1.11 | 0.00 | 93 | 1013.5 |
| 20260505121541 | 51 | 0 | 0.0 | 2.0 | 0.00 | 1.11 | 0.00 | 93 | 1013.4 |
| 20260505120041 | 51 | 0 | 0.0 | 4.0 | 0.00 | 1.11 | 0.00 | 93 | 1013.4 |
| 20260505114537 | 51 | 126 | 0.0 | 1.0 | 0.00 | 1.11 | 0.00 | 93 | 1013.5 |
| 20260505113036 | 51 | 0 | 0.0 | 1.0 | 0.00 | 1.11 | 0.00 | 93 | 1013.6 |
| 20260505111535 | 52 | 0 | 0.0 | 0.0 | 0.00 | 1.11 | 0.00 | 93 | 1013.6 |
| 20260505101542 | 52 | 0 | 0.0 | 0.0 | 0.00 | 1.11 | 0.00 | 93 | 1013.6 |
| 20260505100036 | 51 | 0 | 0.0 | 0.0 | 0.00 | 1.11 | 0.00 | 93 | 1013.6 |
| 20260505094539 | 51 | 0 | 0.0 | 0.0 | 0.00 | 1.11 | 0.00 | 93 | 1013.4 |
| 20260505093039 | 51 | 0 | 0.0 | 0.0 | 0.00 | 1.11 | 0.00 | 93 | 1013.8 |
| 20260505091536 | 51 | 0 | 0.0 | 0.0 | 0.00 | 1.11 | 0.00 | 93 | 1013.8 |
| 20260505090042 | 51 | 0 | 0.0 | 0.0 | 0.00 | 1.11 | 0.00 | 93 | 1014.1 |
| 20260505084552 | 51 | 0 | 0.0 | 0.0 | 0.00 | 1.11 | 0.00 | 93 | 1014.1 |
| 20260505083054 | 51 | 0 | 0.0 | 1.0 | 0.00 | 1.11 | 0.00 | 93 | 1014.3 |
| 20260505081537 | 52 | 0 | 0.0 | 0.0 | 0.00 | 1.11 | 0.00 | 93 | 1014.4 |
| 20260505080044 | 51 | 0 | 0.0 | 0.0 | 0.00 | 1.11 | 0.00 | 93 | 1014.3 |
| 20260505074535 | 51 | 0 | 0.0 | 0.0 | 0.00 | 1.11 | 0.00 | 93 | 1014.2 |
| 20260505073035 | 51 | 0 | 0.0 | 0.0 | 0.01 | 1.11 | 0.00 | 93 | 1014.4 |
| 20260505071546 | 51 | 0 | 0.0 | 0.0 | 0.02 | 1.11 | 0.00 | 93 | 1014.4 |
| 20260505070037 | 51 | 0 | 0.0 | 0.0 | 0.03 | 1.11 | 0.00 | 93 | 1014.4 |
| 20260505064537 | 51 | 0 | 0.0 | 0.0 | 0.03 | 1.11 | 1.11 | 93 | 1014.2 |
| 20260505063032 | 51 | 0 | 0.0 | 0.0 | 0.06 | 1.10 | 1.10 | 93 | 1014.5 |
| 20260505061534 | 51 | 0 | 0.0 | 0.0 | 0.08 | 1.09 | 1.09 | 93 | 1014.6 |
| 20260505060045 | 52 | 0 | 0.0 | 0.0 | 0.09 | 1.08 | 1.08 | 93 | 1014.5 |
| 20260505054549 | 51 | 0 | 0.0 | 0.0 | 0.07 | 1.07 | 1.07 | 93 | 1014.4 |
| 20260505053036 | 52 | 0 | 0.0 | 0.0 | 0.04 | 1.03 | 1.03 | 93 | 1014.6 |
| 20260505051542 | 52 | 0 | 0.0 | 0.0 | 0.01 | 1.00 | 1.00 | 93 | 1014.4 |
| 20260505041536 | 51 | 0 | 0.0 | 0.0 | 0.27 | 0.96 | 0.96 | 92 | 1014.4 |
| 20260505040043 | 51 | 0 | 0.0 | 2.0 | 0.28 | 0.89 | 0.89 | 92 | 1014.4 |
| 20260505034538 | 52 | 0 | 0.0 | 0.0 | 0.24 | 0.80 | 0.80 | 92 | 1014.8 |
| 20260505033043 | 52 | 0 | 0.0 | 1.0 | 0.21 | 0.74 | 0.74 | 92 | 1014.7 |
| 20260505031551 | 52 | 0 | 0.0 | 2.0 | 0.15 | 0.67 | 0.67 | 92 | 1014.4 |
| 20260505030037 | 52 | 0 | 0.0 | 3.0 | 0.11 | 0.60 | 0.60 | 92 | 1015.0 |
| 20260505024546 | 52 | 126 | 0.0 | 3.0 | 0.08 | 0.55 | 0.55 | 92 | 1014.7 |
| 20260505023041 | 52 | 0 | 0.0 | 3.0 | 0.11 | 0.52 | 0.52 | 92 | 1014.3 |
| 20260505021538 | 52 | 126 | 0.0 | 2.0 | 0.12 | 0.51 | 0.51 | 92 | 1013.8 |
| 20260505020037 | 52 | 0 | 1.0 | 4.0 | 0.12 | 0.49 | 0.49 | 92 | 1013.5 |
| 20260505014558 | 52 | 0 | 0.0 | 3.0 | 0.09 | 0.46 | 0.46 | 92 | 1014.1 |
| 20260505013036 | 52 | 0 | 0.0 | 2.0 | 0.03 | 0.40 | 0.40 | 92 | 1014.2 |
| 20260505011548 | 53 | 0 | 0.0 | 0.0 | 0.01 | 0.38 | 0.38 | 92 | 1013.9 |
| 20260505010033 | 53 | 0 | 0.0 | 2.0 | 0.00 | 0.37 | 0.37 | 91 | 1013.8 |
| 20260505004538 | 53 | 0 | 0.0 | 0.0 | 0.07 | 0.36 | 0.36 | 92 | 1014.2 |
| 20260505003038 | 53 | 0 | 0.0 | 0.0 | 0.07 | 0.33 | 0.33 | 91 | 1014.5 |
| 20260505001543 | 53 | 0 | 0.0 | 0.0 | 0.07 | 0.32 | 0.32 | 91 | 1014.4 |
| 20260505000037 | 53 | 0 | 0.0 | 3.0 | 0.11 | 0.31 | 0.31 | 91 | 1014.3 |
| 20260504234535 | 53 | 0 | 0.0 | 2.0 | 0.11 | 0.28 | 0.28 | 91 | 1014.4 |
| 20260504233034 | 53 | 0 | 0.0 | 1.0 | 0.11 | 0.25 | 0.25 | 91 | 1014.4 |
| 20260504231541 | 54 | 0 | 0.0 | 3.0 | 0.10 | 0.24 | 0.24 | 91 | 1014.5 |
| 20260504230040 | 54 | 0 | 0.0 | 3.0 | 0.08 | 0.20 | 0.20 | 91 | 1014.7 |
| 20260504224545 | 55 | 0 | 0.0 | 2.0 | 0.07 | 0.17 | 0.17 | 91 | 1014.6 |
| 20260504223037 | 55 | 0 | 0.0 | 0.0 | 0.06 | 0.14 | 0.14 | 91 | 1014.7 |
| 20260504221542 | 55 | 0 | 0.0 | 0.0 | 0.06 | 0.14 | 0.14 | 91 | 1014.8 |
| 20260504220045 | 55 | 0 | 0.0 | 0.0 | 0.04 | 0.11 | 0.11 | 90 | 1014.9 |